Location: Rosenheim
(47.8408°N, 12.2113°E)
Time: 22:32:32
(UTC+02:00)

ISS - Visible Passes

Search period start: 26 July 2017 00:00
Search period end: 05 August 2017 00:00
Orbit: 400 x 408 km, 51.6° (Epoch: 27 July)

Date Brightness Start Highest point End Pass type
(mag) Time Alt. Az. Time Alt. Az. Time Alt. Az.
26 Jul -2.5 00:52:19 10° WNW 00:55:26 41° N 00:56:42 27° NE visible
26 Jul -1.2 02:28:52 10° WNW 02:29:15 13° WNW 02:29:15 13° WNW visible
26 Jul -3.8 22:23:01 10° WSW 22:26:16 80° NNW 22:29:32 10° ENE visible
26 Jul -2.5 23:59:54 10° WNW 00:03:01 40° N 00:05:20 16° ENE visible
27 Jul -1.8 01:36:34 10° WNW 01:37:56 22° WNW 01:37:56 22° WNW visible
27 Jul -3.9 21:30:44 10° SW 21:33:58 68° SSE 21:37:12 10° ENE visible
27 Jul -2.7 23:07:27 10° W 23:10:35 44° N 23:13:43 10° ENE visible
28 Jul -2.7 00:44:14 10° WNW 00:46:58 44° NNW 00:46:58 44° NNW visible
28 Jul -3.0 22:14:58 10° W 22:18:09 52° NNW 22:21:22 10° ENE visible
28 Jul -2.6 23:51:52 10° WNW 23:55:00 42° N 23:56:08 29° NE visible
29 Jul -1.1 01:28:23 10° WNW 01:28:44 12° WNW 01:28:44 12° WNW visible
29 Jul -3.5 21:22:31 10° WSW 21:25:46 70° NNW 21:29:01 10° ENE visible
29 Jul -2.5 22:59:26 10° WNW 23:02:32 40° N 23:05:21 12° ENE visible
30 Jul -2.3 00:36:02 10° WNW 00:37:58 32° WNW 00:37:58 32° WNW visible
30 Jul -2.6 22:06:56 10° W 22:10:04 42° N 22:13:12 10° ENE visible
30 Jul -3.2 23:43:41 10° WNW 23:46:54 53° NNE 23:47:12 50° NE visible
31 Jul -2.8 22:51:18 10° WNW 22:54:26 44° N 22:56:29 19° ENE visible
01 Aug -1.7 00:27:48 10° WNW 00:29:05 22° WNW 00:29:05 22° WNW visible
01 Aug -2.6 21:58:50 10° WNW 22:01:56 40° N 22:05:03 10° ENE visible
01 Aug -3.6 23:35:25 10° WNW 23:38:22 69° NW 23:38:22 69° NW visible
02 Aug -3.4 22:43:00 10° WNW 22:46:14 57° NNE 22:47:40 29° E visible
03 Aug -1.2 00:19:36 10° WNW 00:20:18 15° W 00:20:18 15° W visible
03 Aug -2.9 21:50:35 10° WNW 21:53:45 46° N 21:56:55 10° E visible
03 Aug -3.1 23:27:06 10° WNW 23:29:36 44° W 23:29:36 44° W visible
04 Aug -3.9 22:34:39 10° WNW 22:37:56 90° ESE 22:38:56 41° ESE visible
